Flag for Brazil Weather past 2 weeks in Passo Fundo, Rio Grande do Sul, Brazil

Now
72 °F

Overcast.


Feels Like: 72 °F
Forecast: 63 / 79 °F
Wind: 6 mph from South

Location: Porto Alegre Aero-Porto

Current Time: Mar 26, 2015 at 4:15:37 PM

Latest Report: Mar 26, 2015 at 4:00 PM


Visibility: N/A

Pressure: 29.95 "Hg

Humidity: 78%

Dew point: 64 °F

Location of Passo FundoLocation

Historic Weather in Passo Fundo — Graph

°F

Passo Fundo temperature yesterday

Maximum temperature yesterday: 90 °F (at 4:00 PM)
Minimum temperature yesterday: 68 °F (at 5:00 AM)
Average temperature yesterday: 78 °F

Past Weeks' High & Low Weather Summary

 TemperatureHumidityPressure
High90 °F (Mar 14, 1:00 PM)100% (Mar 12, 5:00 AM)30.15 "Hg (Mar 12, 5:00 AM)
Low61 °F (Mar 23, 5:00 AM)40% (Mar 19, 3:00 PM)29.77 "Hg (Mar 20, 5:00 PM)
Average75 °F75%29.95 "Hg
* Reported Mar 11 3:00 PM — Mar 26 3:00 PM, Passo Fundo, Weather by CustomWeather, © 2015

Note: Actual official high and low records may vary slightly from our data, if they occured in-between our weather recording intervals... More about our weather records

Advertising

Passo Fundo weather history for previous 24 hours

 ConditionsComfort  
Time TempWeatherWind HumidityBarometerVisibility
3:00 PM
Thu, Mar 26
73 °FOvercast.8 mph74%29.95 "HgN/A
2:00 PM72 °FOvercast.8 mph78%29.95 "HgN/A
1:00 PM72 °FOvercast.10 mph83%29.95 "HgN/A
12:00 PM72 °FOvercast.12 mph83%29.98 "HgN/A
11:00 AM72 °FOvercast.10 mph88%29.98 "Hg6 mi
10:00 AM72 °FOvercast.9 mph88%29.98 "Hg6 mi
9:00 AM73 °FOvercast.7 mph83%29.95 "Hg5 mi
8:00 AM75 °FPartly sunny.6 mph83%29.92 "Hg5 mi
7:00 AM72 °FPartly sunny.9 mph94%29.92 "HgN/A
6:00 AM72 °FScattered clouds.3 mph94%29.89 "Hg4 mi
5:00 AM73 °FPassing clouds.9 mph89%29.89 "Hg4 mi
4:00 AM72 °FLight rain. Partly cloudy.3 mph94%29.86 "Hg4 mi
3:00 AM73 °FLight rain. Partly cloudy.3 mph89%29.86 "Hg4 mi
2:00 AM75 °FLight rain. Partly cloudy.No wind89%29.89 "Hg4 mi
1:00 AM75 °FPassing clouds.2 mph89%29.89 "HgN/A
12:00 AM77 °FClear.3 mph83%29.92 "Hg10 mi
11:00 PM
Wed, Mar 25
75 °FClear.3 mph83%29.92 "Hg10 mi
10:00 PM77 °FClear.5 mph83%29.92 "Hg10 mi
9:00 PM77 °FPassing clouds.7 mph79%29.92 "HgN/A
8:00 PM79 °FPassing clouds.10 mph74%29.89 "HgN/A
7:00 PM81 °FPassing clouds.6 mph66%29.92 "HgN/A
6:00 PM86 °FClear.No wind52%29.89 "Hg10 mi
5:00 PM88 °FSunny.2 mph49%29.92 "Hg10 mi
4:00 PM90 °FSunny.3 mph46%29.92 "Hg10 mi
Weather by CustomWeather, © 2015

See weather overviewHow to use our weather pages